Location: ?????????
(55.6553°N, 38.9075°E)
Time: 16:25:06
(UTC+00:00)

NOSS 3-1 (A) - Pass Details

Date: 18 October 2019
Orbit: 769 x 1443 km, 63.4° (Epoch: 19 November)

Event Time Altitude Azimuth Distance (km) Brightness Sun altitude
Exits shadow 02:59:04 - 295° (WNW) 2,833 5.3 -9.3°
Reaches altitude 10° 02:59:16 10° 295° (WNW) 2,763 5.3 -9.3°
Maximum altitude 03:05:36 47° 9° (N) 1,453 4.5 -8.4°
Drops below altitude 10° 03:13:02 10° 82° (E) 3,240 7.8 -7.3°
Sets 03:16:12 0° 88° (E) 4,300 9.1 -6.9°
